OE8NDR-11 Weather Reports


Display with metric or nautical units.
time (UTC)temp
F
wind
direction
speed
MPH
gust
MPH
rain 1hr
in
rain 24hr
in
rain mn
in
humidity
%
barometer
mb
20260507182307 66 108 2.0 3.0 0.00 0.04 0.04 63 1016.5
20260507181805 66 145 4.0 7.0 0.00 0.04 0.04 61 1016.5
20260507181305 66 132 3.0 6.0 0.00 0.04 0.04 60 1016.4
20260507180805 67 76 2.0 4.0 0.00 0.04 0.04 59 1016.4
20260507180305 67 338 3.0 3.0 0.00 0.04 0.04 57 1016.4
20260507175805 67 340 3.0 4.0 0.00 0.04 0.04 58 1016.3
20260507175307 67 334 2.0 3.0 0.00 0.04 0.04 58 1016.4
20260507174805 67 314 2.0 3.0 0.00 0.04 0.04 58 1016.4
20260507174305 67 310 2.0 3.0 0.00 0.04 0.04 58 1016.4
20260507173805 67 269 2.0 2.0 0.00 0.04 0.04 57 1016.4
20260507173305 68 269 1.0 2.0 0.00 0.04 0.04 57 1016.4
20260507172805 68 269 1.0 2.0 0.00 0.04 0.04 57 1016.4
20260507172308 68 269 2.0 3.0 0.00 0.04 0.04 57 1016.4
20260507171805 68 269 3.0 7.0 0.00 0.04 0.04 57 1016.4
20260507171305 68 277 5.0 8.0 0.00 0.04 0.04 56 1016.4
20260507170805 69 236 5.0 8.0 0.00 0.04 0.04 56 1016.5
20260507170305 69 250 4.0 9.0 0.00 0.04 0.04 55 1016.5
20260507165805 69 242 5.0 6.0 0.00 0.04 0.04 55 1016.5
20260507165306 69 234 7.0 10.0 0.00 0.04 0.04 55 1016.4
20260507164805 70 237 4.0 11.0 0.00 0.04 0.04 56 1016.5
20260507164305 70 207 1.0 4.0 0.00 0.04 0.04 61 1016.4
20260507163805 71 211 0.0 3.0 0.00 0.04 0.04 60 1016.3
20260507163305 71 281 0.0 0.0 0.00 0.04 0.04 59 1016.3
20260507162805 70 281 1.0 2.0 0.00 0.04 0.04 59 1016.2
20260507162307 70 281 2.0 3.0 0.00 0.04 0.04 60 1016.1
20260507161806 70 269 2.0 3.0 0.00 0.04 0.04 61 1016.1
20260507161306 70 276 1.0 3.0 0.00 0.04 0.04 61 1016.1
20260507160806 70 0 1.0 1.0 0.00 0.04 0.04 63 1016.1
20260507160306 70 0 2.0 2.0 0.00 0.04 0.04 64 1016.1
20260507155806 69 306 3.0 6.0 0.00 0.04 0.04 63 1016.2
20260507155306 69 344 5.0 8.0 0.00 0.04 0.04 63 1016.3
20260507154806 69 348 6.0 9.0 0.00 0.04 0.04 63 1016.2
20260507154306 69 355 6.0 9.0 0.00 0.04 0.04 64 1016.1
20260507153848 69 5 5.0 9.0 0.00 0.04 0.04 63 1016.1
20260507153806 69 5 5.0 9.0 0.00 0.04 0.04 63 1016.1
20260507153500 69 32 4.0 10.0 0.00 0.04 0.04 63 1016.1
20260507153306 69 32 4.0 10.0 0.00 0.04 0.04 63 1016.1
20260507152806 69 329 4.0 5.0 0.00 0.04 0.04 65 1016.0
20260507152306 69 11 6.0 9.0 0.00 0.04 0.04 63 1016.1
20260507151806 69 345 6.0 11.0 0.00 0.04 0.04 64 1016.2
20260507151306 69 355 7.0 11.0 0.00 0.04 0.04 64 1016.3
20260507150806 69 5 8.0 11.0 0.00 0.04 0.04 64 1016.3
20260507150306 69 340 8.0 11.0 0.00 0.04 0.04 64 1016.2
20260507145806 69 340 9.0 13.0 0.00 0.04 0.04 64 1016.4
20260507145307 69 324 9.0 14.0 0.00 0.04 0.04 63 1016.4
20260507144806 69 38 8.0 15.0 0.00 0.04 0.04 63 1016.3
20260507144306 69 0 9.0 14.0 0.00 0.04 0.04 64 1016.4
20260507143806 69 18 11.0 16.0 0.00 0.04 0.04 63 1016.5
20260507143306 69 12 10.0 15.0 0.00 0.04 0.04 63 1016.5
20260507142806 69 19 9.0 15.0 0.00 0.04 0.04 63 1016.4
20260507142307 69 16 8.0 13.0 0.00 0.04 0.04 63 1016.6
20260507141806 70 355 7.0 13.0 0.00 0.04 0.04 62 1016.5
20260507141306 69 355 8.0 10.0 0.00 0.04 0.04 65 1016.5
20260507140806 69 323 8.0 14.0 0.00 0.04 0.04 63 1016.4
20260507140306 69 340 9.0 13.0 0.00 0.04 0.04 63 1016.5
20260507135806 69 5 10.0 13.0 0.00 0.04 0.04 64 1016.5
20260507135306 69 35 9.0 16.0 0.00 0.04 0.04 64 1016.4
20260507134806 69 338 8.0 13.0 0.01 0.04 0.04 64 1016.4
20260507134306 69 349 8.0 13.0 0.01 0.04 0.04 66 1016.5
20260507133806 69 355 8.0 16.0 0.01 0.04 0.04 65 1016.5
20260507133306 69 332 10.0 14.0 0.01 0.04 0.04 66 1016.5
20260507132806 68 347 11.0 16.0 0.01 0.04 0.04 65 1016.5
20260507132307 68 355 10.0 16.0 0.01 0.04 0.04 65 1016.5
20260507131806 68 330 9.0 15.0 0.01 0.04 0.04 65 1016.6
20260507131306 68 5 9.0 13.0 0.01 0.04 0.04 66 1016.6
20260507130806 68 340 9.0 15.0 0.01 0.04 0.04 65 1016.6
20260507130306 68 339 9.0 13.0 0.01 0.04 0.04 65 1016.6
20260507125806 69 22 10.0 13.0 0.01 0.04 0.04 64 1016.6
20260507125307 69 355 7.0 15.0 0.01 0.04 0.04 63 1016.6
20260507124806 71 330 2.0 9.0 0.00 0.03 0.03 61 1016.5
20260507124306 71 51 2.0 2.0 0.00 0.03 0.03 57 1016.5
20260507123806 71 51 2.0 4.0 0.00 0.03 0.03 56 1016.4
20260507123306 71 67 3.0 5.0 0.00 0.03 0.03 58 1016.5
20260507122806 70 39 3.0 5.0 0.00 0.05 0.03 59 1016.5
20260507122307 70 28 2.0 4.0 0.00 0.05 0.03 61 1016.5
20260507121806 70 350 2.0 4.0 0.00 0.05 0.03 61 1016.6
20260507121306 70 320 2.0 5.0 0.00 0.05 0.03 59 1016.7
20260507120806 69 46 2.0 5.0 0.00 0.05 0.03 60 1016.7
20260507120306 69 39 3.0 6.0 0.00 0.05 0.03 62 1016.6
20260507115806 68 26 3.0 6.0 0.00 0.05 0.03 62 1016.7
20260507115307 68 95 3.0 7.0 0.00 0.05 0.03 61 1016.8
20260507114806 68 34 3.0 6.0 0.00 0.05 0.03 64 1016.8
20260507114306 67 153 3.0 5.0 0.00 0.05 0.03 64 1016.8
20260507113806 67 137 3.0 7.0 0.00 0.05 0.03 63 1016.9
20260507113306 67 29 3.0 4.0 0.00 0.05 0.03 64 1017.0
20260507112806 66 61 4.0 7.0 0.00 0.05 0.03 65 1016.9
20260507112307 66 85 4.0 7.0 0.00 0.05 0.03 65 1016.8
20260507111806 66 92 4.0 7.0 0.00 0.05 0.03 65 1017.0
20260507111306 66 87 4.0 7.0 0.00 0.05 0.03 67 1017.1
20260507110806 66 91 3.0 7.0 0.00 0.05 0.03 66 1017.1
20260507110306 65 109 2.0 4.0 0.00 0.05 0.03 68 1017.3
20260507105806 65 112 2.0 4.0 0.00 0.05 0.03 68 1017.3
20260507105307 65 74 3.0 5.0 0.00 0.05 0.03 68 1017.4
20260507104806 65 59 2.0 6.0 0.00 0.05 0.03 68 1017.3
20260507104306 64 30 2.0 3.0 0.00 0.05 0.03 68 1017.3
20260507103806 64 277 2.0 4.0 0.00 0.05 0.03 68 1017.4
20260507103306 64 343 2.0 4.0 0.00 0.05 0.03 70 1017.6
20260507102806 64 16 2.0 4.0 0.00 0.05 0.03 69 1017.6
20260507102307 64 355 2.0 3.0 0.00 0.05 0.03 68 1017.7
20260507101806 63 348 2.0 4.0 0.00 0.05 0.03 69 1017.8
20260507101306 63 328 2.0 3.0 0.00 0.05 0.03 70 1017.8
20260507100806 63 327 2.0 4.0 0.00 0.05 0.03 69 1017.8
20260507100306 63 321 2.0 4.0 0.00 0.05 0.03 70 1017.9
20260507095806 63 313 2.0 5.0 0.00 0.05 0.03 72 1018.0
20260507095306 62 315 2.0 5.0 0.00 0.05 0.03 72 1018.0
20260507094806 62 346 1.0 6.0 0.00 0.05 0.03 72 1018.1
20260507094306 62 53 2.0 4.0 0.00 0.05 0.03 72 1018.2
20260507093806 62 355 2.0 3.0 0.00 0.05 0.03 72 1018.1
20260507093306 61 46 3.0 6.0 0.00 0.05 0.03 72 1018.2
20260507092806 61 75 4.0 4.0 0.00 0.05 0.03 73 1018.1
20260507092307 61 28 7.0 12.0 0.00 0.05 0.03 74 1018.1
20260507091806 61 87 8.0 12.0 0.00 0.05 0.03 76 1018.0
20260507091306 61 63 8.0 11.0 0.00 0.05 0.03 78 1018.2
20260507090806 60 68 8.0 12.0 0.00 0.05 0.03 79 1018.2
20260507090306 60 93 8.0 11.0 0.01 0.05 0.03 80 1018.1
20260507085806 60 107 7.0 12.0 0.01 0.05 0.03 82 1018.4
20260507085307 60 84 7.0 9.0 0.01 0.05 0.03 82 1018.5
20260507084806 60 105 8.0 10.0 0.01 0.05 0.03 84 1018.7
20260507084306 59 97 9.0 13.0 0.01 0.05 0.03 85 1018.7
20260507083806 59 85 8.0 12.0 0.01 0.05 0.03 86 1018.9
20260507083306 59 92 8.0 10.0 0.01 0.05 0.03 87 1019.1
20260507082806 59 98 6.0 10.0 0.01 0.05 0.03 88 1019.4
20260507082307 59 80 5.0 9.0 0.02 0.05 0.03 89 1019.4
20260507081806 58 118 5.0 7.0 0.02 0.05 0.03 89 1019.7
20260507081306 58 115 5.0 8.0 0.02 0.05 0.03 89 1019.7
20260507080806 59 109 5.0 8.0 0.02 0.05 0.03 89 1019.7
20260507080306 59 117 6.0 8.0 0.01 0.04 0.02 90 1019.7
20260507075806 60 153 6.0 10.0 0.01 0.04 0.02 89 1019.8
20260507075307 60 140 4.0 9.0 0.02 0.04 0.02 90 1019.9
20260507074806 60 130 3.0 5.0 0.02 0.04 0.02 90 1019.9
20260507074306 60 109 2.0 3.0 0.02 0.04 0.02 90 1019.8
20260507073806 60 109 1.0 3.0 0.02 0.04 0.02 90 1019.7
20260507073306 60 105 2.0 2.0 0.02 0.04 0.02 90 1019.7
20260507072806 60 105 2.0 4.0 0.02 0.04 0.02 90 1019.8
20260507072308 60 166 3.0 4.0 0.01 0.03 0.01 89 1019.9
20260507071806 60 284 4.0 6.0 0.01 0.03 0.01 89 1019.8
20260507071307 60 274 3.0 7.0 0.01 0.03 0.01 89 1019.8
20260507070807 60 269 3.0 6.0 0.01 0.03 0.01 89 1019.8
20260507070307 60 291 3.0 4.0 0.01 0.03 0.01 89 1019.6
20260507065807 60 289 3.0 4.0 0.01 0.03 0.01 89 1019.5
20260507065307 60 277 2.0 3.0 0.00 0.02 0.00 89 1019.5
20260507064807 60 278 3.0 4.0 0.00 0.02 0.00 89 1019.4
20260507064307 60 278 3.0 4.0 0.00 0.02 0.00 89 1019.4
20260507063807 59 292 3.0 4.0 0.00 0.02 0.00 89 1019.3
20260507063307 59 306 2.0 4.0 0.00 0.02 0.00 89 1019.2
20260507062807 59 317 2.0 3.0 0.00 0.02 0.00 89 1019.1
20260507062307 59 317 2.0 3.0 0.00 0.02 0.00 89 1019.0
20260507061807 59 317 2.0 3.0 0.00 0.02 0.00 89 1018.9
20260507061307 59 317 2.0 3.0 0.00 0.02 0.00 89 1018.9
20260507060807 59 298 0.0 2.0 0.00 0.02 0.00 89 1019.0
20260507060307 59 298 1.0 1.0 0.00 0.02 0.00 89 1018.9
20260507055807 59 298 2.0 3.0 0.00 0.02 0.00 89 1018.8
20260507055307 59 298 3.0 4.0 0.00 0.02 0.00 89 1018.8
20260507054807 59 313 4.0 5.0 0.00 0.02 0.00 90 1018.8
20260507054307 59 325 3.0 5.0 0.00 0.02 0.00 90 1018.7
20260507053807 59 299 3.0 5.0 0.00 0.02 0.00 89 1018.8
20260507053307 59 272 2.0 4.0 0.00 0.02 0.00 89 1018.7
20260507052807 59 277 2.0 2.0 0.00 0.02 0.00 89 1018.5
20260507052307 59 277 2.0 3.0 0.00 0.02 0.00 89 1018.5
20260507051807 59 266 2.0 3.0 0.00 0.02 0.00 89 1018.6
20260507051307 59 282 2.0 3.0 0.00 0.02 0.00 88 1018.4
20260507050807 59 284 1.0 3.0 0.00 0.02 0.00 88 1018.4
20260507050307 59 327 1.0 2.0 0.00 0.02 0.00 88 1018.3
20260507045807 59 327 0.0 0.0 0.00 0.02 0.00 88 1018.2
20260507045307 59 327 0.0 0.0 0.00 0.02 0.00 88 1018.1
20260507044807 59 327 0.0 0.0 0.00 0.02 0.00 88 1018.1
20260507044307 58 327 1.0 1.0 0.00 0.02 0.00 88 1018.0
20260507043807 58 327 2.0 2.0 0.00 0.02 0.00 88 1018.1
20260507043307 58 327 2.0 3.0 0.00 0.02 0.00 89 1018.1
20260507042807 58 327 3.0 3.0 0.00 0.02 0.00 88 1018.0
20260507042307 58 327 4.0 4.0 0.00 0.02 0.00 89 1017.9
20260507041807 58 329 3.0 5.0 0.00 0.02 0.00 89 1017.9
20260507041307 58 336 3.0 4.0 0.00 0.02 0.00 89 1018.0
20260507040807 58 331 3.0 3.0 0.00 0.02 0.00 89 1017.9
20260507040307 58 329 3.0 4.0 0.00 0.02 0.00 89 1017.8
20260507035807 58 331 3.0 4.0 0.00 0.02 0.00 89 1017.8
20260507035307 58 327 4.0 4.0 0.00 0.02 0.00 89 1017.8
20260507034807 58 314 5.0 6.0 0.00 0.02 0.00 89 1017.8
20260507034307 58 312 4.0 7.0 0.00 0.02 0.00 89 1017.8
20260507033807 58 300 3.0 4.0 0.00 0.02 0.00 89 1017.7
20260507033307 58 329 2.0 4.0 0.00 0.02 0.00 89 1017.5
20260507032807 57 58 2.0 3.0 0.00 0.02 0.00 89 1017.3
20260507032307 57 58 3.0 4.0 0.00 0.02 0.00 90 1017.3
20260507031807 57 59 3.0 4.0 0.00 0.02 0.00 90 1017.3
20260507031307 57 80 2.0 3.0 0.00 0.02 0.00 90 1017.3
20260507030807 57 81 1.0 2.0 0.00 0.02 0.00 90 1017.6
20260507030307 57 81 0.0 0.0 0.00 0.02 0.00 90 1017.6
20260507025807 57 84 1.0 1.0 0.00 0.02 0.00 90 1017.6
20260507025307 57 84 2.0 2.0 0.00 0.02 0.00 90 1017.7
20260507024807 57 84 2.0 3.0 0.00 0.02 0.00 90 1017.6
20260507024307 57 84 1.0 3.0 0.00 0.02 0.00 90 1017.6
20260507023807 57 104 0.0 0.0 0.00 0.02 0.00 90 1017.6
20260507023307 57 104 0.0 0.0 0.00 0.02 0.00 90 1017.6
20260507022807 57 104 0.0 0.0 0.00 0.02 0.00 90 1017.6
20260507022307 57 104 0.0 0.0 0.00 0.02 0.00 90 1017.5
20260507021807 57 104 0.0 0.0 0.00 0.02 0.00 90 1017.6
20260507021307 57 104 0.0 0.0 0.00 0.02 0.00 90 1017.6
20260507020807 57 104 1.0 2.0 0.00 0.02 0.00 90 1017.6
20260507020307 57 104 2.0 3.0 0.00 0.02 0.00 90 1017.5
20260507015807 57 104 2.0 3.0 0.00 0.02 0.00 90 1017.4
20260507015307 57 85 2.0 3.0 0.00 0.02 0.00 90 1017.5
20260507014807 57 85 2.0 3.0 0.00 0.02 0.00 90 1017.5
20260507014307 57 85 2.0 3.0 0.00 0.02 0.00 90 1017.6
20260507013807 57 85 3.0 3.0 0.00 0.02 0.00 90 1017.6
20260507013307 57 85 3.0 4.0 0.00 0.02 0.00 90 1017.5
20260507012807 57 86 2.0 4.0 0.00 0.02 0.00 90 1017.5
20260507012307 57 128 2.0 3.0 0.00 0.02 0.00 90 1017.6
20260507011807 57 145 2.0 4.0 0.00 0.02 0.00 90 1017.6
20260507011307 57 145 2.0 4.0 0.00 0.02 0.00 90 1017.6
20260507010807 57 155 2.0 4.0 0.00 0.02 0.00 89 1017.5
20260507010307 58 151 3.0 4.0 0.00 0.02 0.00 90 1017.4
20260507005807 58 146 3.0 4.0 0.00 0.02 0.00 90 1017.4
20260507005307 58 121 1.0 4.0 0.00 0.02 0.00 89 1017.3
20260507004807 58 112 1.0 3.0 0.00 0.02 0.00 89 1017.4
20260507004307 58 90 0.0 0.0 0.00 0.02 0.00 89 1017.3
20260507003807 58 82 0.0 0.0 0.00 0.02 0.00 89 1017.3
20260507003307 58 59 0.0 0.0 0.00 0.02 0.00 89 1017.4
20260507002807 58 310 0.0 0.0 0.00 0.02 0.00 89 1017.4
20260507002307 58 310 0.0 0.0 0.00 0.02 0.00 89 1017.3
20260507001807 58 310 0.0 0.0 0.00 0.02 0.00 89 1017.3
20260507001307 58 309 0.0 0.0 0.00 0.02 0.00 88 1017.3
20260507000807 59 310 0.0 0.0 0.00 0.02 0.00 88 1017.1
20260507000307 59 309 0.0 0.0 0.00 0.02 0.00 88 1017.2
20260506235807 59 309 0.0 0.0 0.00 0.02 0.00 88 1017.3
20260506235307 59 309 0.0 0.0 0.00 0.02 0.00 88 1017.2
20260506234807 59 309 0.0 0.0 0.00 0.02 0.00 88 1017.1
20260506234307 59 309 0.0 0.0 0.00 0.02 0.00 88 1017.0
20260506233807 59 309 0.0 0.0 0.00 0.02 0.00 88 1017.1
20260506233307 59 21 0.0 0.0 0.00 0.02 0.00 87 1017.0
20260506232807 59 21 0.0 0.0 0.00 0.02 0.00 87 1017.1
20260506232307 59 21 0.0 0.0 0.00 0.02 0.00 87 1016.9
20260506231807 59 21 0.0 0.0 0.00 0.02 0.00 87 1017.0
20260506231307 59 21 0.0 0.0 0.00 0.02 0.00 87 1017.0
20260506230807 59 21 0.0 0.0 0.00 0.02 0.00 87 1017.0
20260506230307 59 21 0.0 0.0 0.00 0.02 0.00 87 1016.9
20260506225807 59 21 0.0 0.0 0.00 0.02 0.00 87 1016.9
20260506225307 59 21 0.0 0.0 0.00 0.02 0.00 87 1017.0
20260506224807 59 21 0.0 0.0 0.00 0.02 0.00 86 1017.0
20260506224307 59 21 0.0 0.0 0.00 0.02 0.00 86 1017.0
20260506223807 59 21 0.0 0.0 0.00 0.02 0.00 86 1017.1
20260506223308 59 92 0.0 0.0 0.00 0.02 0.00 85 1017.1
20260506222807 59 92 0.0 0.0 0.00 0.02 0.00 85 1017.1
20260506222308 59 92 0.0 0.0 0.00 0.02 0.00 85 1017.0
20260506221808 60 92 0.0 0.0 0.00 0.02 0.00 84 1016.9
20260506221308 60 92 0.0 0.0 0.00 0.02 0.00 84 1017.0
20260506220808 60 142 0.0 0.0 0.00 0.02 0.00 83 1017.0
20260506220308 60 190 0.0 0.0 0.00 0.02 0.00 83 1016.8
20260506215808 60 190 0.0 1.0 0.00 0.02 0.02 83 1016.9
20260506215308 60 190 1.0 2.0 0.00 0.02 0.02 83 1017.0
20260506214808 60 190 2.0 2.0 0.00 0.02 0.02 84 1017.0
20260506214308 60 190 2.0 3.0 0.00 0.02 0.02 84 1017.1
20260506213808 60 190 2.0 2.0 0.00 0.02 0.02 84 1017.0
20260506213308 60 190 2.0 2.0 0.00 0.02 0.02 84 1017.0
20260506212808 60 190 2.0 2.0 0.00 0.02 0.02 84 1017.0
20260506212308 61 190 2.0 2.0 0.00 0.02 0.02 84 1017.0
20260506211808 60 190 1.0 2.0 0.00 0.02 0.02 83 1017.0
20260506211308 61 190 0.0 2.0 0.00 0.02 0.02 83 1017.1
20260506210808 61 190 0.0 2.0 0.00 0.02 0.02 83 1017.2
20260506210308 61 190 1.0 1.0 0.00 0.02 0.02 83 1017.3
20260506205808 61 190 2.0 3.0 0.00 0.02 0.02 82 1017.4
20260506205308 61 196 2.0 2.0 0.00 0.02 0.02 82 1017.4
20260506204808 61 197 2.0 2.0 0.00 0.02 0.02 82 1017.3
20260506204308 61 197 1.0 2.0 0.00 0.02 0.02 82 1017.3
20260506203808 61 197 2.0 3.0 0.00 0.02 0.02 82 1017.3
20260506203308 61 198 2.0 3.0 0.00 0.02 0.02 82 1017.4
20260506202808 61 198 3.0 3.0 0.00 0.02 0.02 82 1017.3
20260506202308 61 201 2.0 3.0 0.00 0.02 0.02 82 1017.4
20260506201808 61 209 2.0 3.0 0.00 0.02 0.02 82 1017.4
20260506201308 61 209 1.0 4.0 0.00 0.02 0.02 83 1017.3
20260506200808 61 84 1.0 2.0 0.00 0.02 0.02 83 1017.4
20260506200308 61 82 2.0 2.0 0.00 0.02 0.02 83 1017.4
20260506195808 61 82 3.0 3.0 0.00 0.02 0.02 83 1017.4
20260506195308 61 83 4.0 5.0 0.00 0.02 0.02 83 1017.4
20260506194808 61 82 4.0 5.0 0.00 0.02 0.02 83 1017.4
20260506194308 62 85 5.0 5.0 0.00 0.02 0.02 84 1017.4
20260506193808 62 89 4.0 7.0 0.00 0.02 0.02 83 1017.4
20260506193308 62 88 2.0 4.0 0.00 0.02 0.02 83 1017.5
20260506192808 62 29 1.0 3.0 0.00 0.02 0.02 82 1017.4
20260506192308 62 285 0.0 0.0 0.00 0.02 0.02 82 1017.4
20260506191808 62 285 0.0 0.0 0.00 0.02 0.02 81 1017.4
20260506191308 62 285 0.0 0.0 0.00 0.02 0.02 81 1017.4
20260506190808 62 284 0.0 0.0 0.00 0.02 0.02 80 1017.4
20260506190308 62 284 1.0 1.0 0.00 0.02 0.02 80 1017.3
20260506185808 63 284 1.0 2.0 0.00 0.02 0.02 80 1017.3
20260506185308 63 284 0.0 1.0 0.00 0.02 0.02 80 1017.2
20260506184808 63 284 0.0 0.0 0.00 0.02 0.02 80 1017.1
20260506184308 63 284 0.0 0.0 0.00 0.02 0.02 79 1017.3
20260506183808 63 284 0.0 0.0 0.00 0.02 0.02 78 1017.1
20260506183308 63 284 1.0 0.0 0.00 0.02 0.02 78 1017.0
20260506182808 63 284 1.0 2.0 0.00 0.02 0.02 78 1017.0